| time (UTC) | temp F | wind direction | speed MPH | gust MPH | rain 1hr in | rain 24hr in | rain mn in | humidity % | barometer mb |
| 20260504050023 | 67 | 192 | 3.0 | 6.0 | 0.00 | 0.00 | 0.00 | 72 | 1019.2 |
| 20260504045028 | 67 | 146 | 5.0 | 7.0 | 0.00 | 0.00 | 0.00 | 72 | 1019.3 |
| 20260504044015 | 67 | 143 | 4.0 | 8.0 | 0.00 | 0.00 | 0.00 | 71 | 1019.3 |
| 20260504043041 | 67 | 127 | 4.0 | 8.0 | 0.00 | 0.00 | 0.00 | 71 | 1019.3 |
| 20260504042026 | 67 | 137 | 4.0 | 6.0 | 0.00 | 0.00 | 0.00 | 69 | 1019.3 |
| 20260504041031 | 68 | 124 | 4.0 | 8.0 | 0.00 | 0.00 | 0.00 | 69 | 1019.4 |
| 20260504040019 | 68 | 150 | 3.0 | 5.0 | 0.00 | 0.00 | 0.00 | 68 | 1019.4 |
| 20260504035024 | 68 | 154 | 3.0 | 5.0 | 0.00 | 0.00 | 0.00 | 66 | 1019.3 |
| 20260504034049 | 69 | 131 | 4.0 | 6.0 | 0.00 | 0.00 | 0.00 | 65 | 1019.4 |
| 20260504033017 | 69 | 139 | 3.0 | 5.0 | 0.00 | 0.00 | 0.00 | 63 | 1019.4 |
| 20260504032021 | 69 | 117 | 4.0 | 5.0 | 0.00 | 0.00 | 0.00 | 62 | 1019.2 |
| 20260504031027 | 69 | 125 | 4.0 | 6.0 | 0.00 | 0.00 | 0.00 | 59 | 1019.1 |
| 20260504030026 | 69 | 115 | 3.0 | 5.0 | 0.00 | 0.00 | 0.00 | 59 | 1019.0 |
| 20260504025020 | 69 | 168 | 1.0 | 3.0 | 0.00 | 0.00 | 0.00 | 59 | 1018.9 |
| 20260504024045 | 69 | 0.0 | 0.0 | 0.00 | 0.00 | 0.00 | 57 | 1019.0 | |
| 20260504023024 | 69 | 0.0 | 0.0 | 0.00 | 0.00 | 0.00 | 57 | 1019.1 | |
| 20260504022017 | 70 | 0.0 | 0.0 | 0.00 | 0.00 | 0.00 | 55 | 1019.0 | |
| 20260504021023 | 71 | 180 | 1.0 | 2.0 | 0.00 | 0.00 | 0.00 | 55 | 1019.0 |
| 20260504020022 | 71 | 158 | 0.0 | 2.0 | 0.00 | 0.00 | 0.00 | 54 | 1018.8 |
| 20260504015015 | 72 | 134 | 1.0 | 3.0 | 0.00 | 0.00 | 0.00 | 52 | 1018.7 |
| 20260504014020 | 73 | 147 | 1.0 | 3.0 | 0.00 | 0.00 | 0.00 | 51 | 1018.6 |
| 20260504013019 | 73 | 123 | 2.0 | 4.0 | 0.00 | 0.00 | 0.00 | 51 | 1018.5 |
| 20260504012019 | 74 | 118 | 1.0 | 3.0 | 0.00 | 0.00 | 0.00 | 49 | 1018.5 |
| 20260504011018 | 75 | 126 | 2.0 | 5.0 | 0.00 | 0.00 | 0.00 | 48 | 1018.5 |
| 20260504010017 | 75 | 134 | 3.0 | 5.0 | 0.00 | 0.00 | 0.00 | 46 | 1018.6 |
| 20260504005017 | 76 | 178 | 2.0 | 4.0 | 0.00 | 0.00 | 0.00 | 45 | 1018.6 |
| 20260504004015 | 77 | 210 | 3.0 | 5.0 | 0.00 | 0.00 | 0.00 | 44 | 1018.6 |
| 20260504003015 | 78 | 138 | 3.0 | 6.0 | 0.00 | 0.00 | 0.00 | 43 | 1018.7 |
| 20260504002046 | 80 | 262 | 2.0 | 4.0 | 0.00 | 0.00 | 0.00 | 42 | 1018.7 |
| 20260504001031 | 80 | 123 | 3.0 | 6.0 | 0.00 | 0.00 | 0.00 | 41 | 1018.7 |
| 20260504000019 | 81 | 175 | 3.0 | 6.0 | 0.00 | 0.00 | 0.00 | 40 | 1018.9 |
| 20260503235024 | 81 | 129 | 4.0 | 6.0 | 0.00 | 0.00 | 0.00 | 39 | 1019.0 |
| 20260503234029 | 82 | 217 | 4.0 | 6.0 | 0.00 | 0.00 | 0.00 | 39 | 1019.1 |
| 20260503233017 | 82 | 133 | 3.0 | 5.0 | 0.00 | 0.00 | 0.00 | 39 | 1019.2 |
| 20260503232022 | 83 | 151 | 3.0 | 6.0 | 0.00 | 0.00 | 0.00 | 39 | 1019.3 |
| 20260503231027 | 83 | 136 | 4.0 | 6.0 | 0.00 | 0.00 | 0.00 | 40 | 1019.2 |
| 20260503230032 | 83 | 185 | 4.0 | 6.0 | 0.00 | 0.00 | 0.00 | 40 | 1019.3 |
| 20260503225019 | 82 | 229 | 4.0 | 6.0 | 0.00 | 0.00 | 0.00 | 40 | 1019.3 |
| 20260503224025 | 81 | 126 | 3.0 | 5.0 | 0.00 | 0.00 | 0.00 | 42 | 1019.4 |
| 20260503223030 | 83 | 229 | 4.0 | 5.0 | 0.00 | 0.00 | 0.00 | 40 | 1019.4 |
| 20260503222017 | 81 | 214 | 4.0 | 6.0 | 0.00 | 0.00 | 0.00 | 41 | 1019.8 |
| 20260503221022 | 82 | 150 | 4.0 | 7.0 | 0.00 | 0.00 | 0.00 | 39 | 1019.9 |
| 20260503220028 | 82 | 252 | 3.0 | 5.0 | 0.00 | 0.00 | 0.00 | 40 | 1020.1 |
| 20260503215015 | 82 | 164 | 4.0 | 8.0 | 0.00 | 0.00 | 0.00 | 39 | 1020.3 |
| 20260503214020 | 82 | 239 | 4.0 | 6.0 | 0.00 | 0.00 | 0.00 | 40 | 1020.4 |
| 20260503213025 | 83 | 281 | 3.0 | 7.0 | 0.00 | 0.00 | 0.00 | 39 | 1020.5 |
| 20260503212031 | 83 | 113 | 3.0 | 6.0 | 0.00 | 0.00 | 0.00 | 37 | 1021.0 |
| 20260503211018 | 83 | 168 | 3.0 | 5.0 | 0.00 | 0.00 | 0.00 | 39 | 1021.0 |
| 20260503210023 | 82 | 117 | 6.0 | 9.0 | 0.00 | 0.00 | 0.00 | 39 | 1021.3 |
| 20260503205028 | 83 | 192 | 3.0 | 5.0 | 0.00 | 0.00 | 0.00 | 39 | 1021.5 |
| 20260503204056 | 83 | 138 | 3.0 | 7.0 | 0.00 | 0.00 | 0.00 | 40 | 1021.6 |
| 20260503203021 | 83 | 258 | 4.0 | 7.0 | 0.00 | 0.00 | 0.00 | 40 | 1021.8 |
| 20260503202026 | 83 | 238 | 3.0 | 7.0 | 0.00 | 0.00 | 0.00 | 41 | 1022.0 |
| 20260503201032 | 83 | 269 | 3.0 | 5.0 | 0.00 | 0.00 | 0.00 | 40 | 1022.1 |
| 20260503200019 | 81 | 95 | 3.0 | 4.0 | 0.00 | 0.00 | 0.00 | 41 | 1022.4 |
| 20260503195024 | 81 | 118 | 3.0 | 5.0 | 0.00 | 0.00 | 0.00 | 42 | 1022.5 |
| 20260503194030 | 82 | 126 | 3.0 | 5.0 | 0.00 | 0.00 | 0.00 | 41 | 1022.6 |
| 20260503193017 | 82 | 266 | 3.0 | 4.0 | 0.00 | 0.00 | 0.00 | 42 | 1022.7 |
| 20260503192022 | 80 | 110 | 5.0 | 10.0 | 0.00 | 0.00 | 0.00 | 42 | 1022.6 |
| 20260503191048 | 80 | 136 | 3.0 | 6.0 | 0.00 | 0.00 | 0.00 | 45 | 1023.0 |
| 20260503190033 | 80 | 110 | 4.0 | 6.0 | 0.00 | 0.00 | 0.00 | 42 | 1023.2 |
| 20260503185020 | 80 | 123 | 3.0 | 7.0 | 0.00 | 0.00 | 0.00 | 45 | 1023.3 |
| 20260503184025 | 81 | 132 | 4.0 | 7.0 | 0.00 | 0.00 | 0.00 | 45 | 1023.4 |
| 20260503183031 | 80 | 138 | 4.0 | 7.0 | 0.00 | 0.00 | 0.00 | 46 | 1023.6 |
| 20260503182017 | 81 | 123 | 4.0 | 6.0 | 0.00 | 0.00 | 0.00 | 46 | 1023.7 |
| 20260503181023 | 81 | 221 | 3.0 | 4.0 | 0.00 | 0.00 | 0.00 | 47 | 1023.9 |
| 20260503180028 | 81 | 277 | 3.0 | 5.0 | 0.00 | 0.00 | 0.00 | 44 | 1024.3 |
| 20260503175015 | 78 | 110 | 3.0 | 4.0 | 0.00 | 0.00 | 0.00 | 49 | 1024.5 |
| 20260503174021 | 78 | 100 | 3.0 | 4.0 | 0.00 | 0.00 | 0.00 | 50 | 1024.6 |
| 20260503173026 | 80 | 258 | 4.0 | 6.0 | 0.00 | 0.00 | 0.00 | 48 | 1024.6 |
| 20260503172031 | 79 | 244 | 3.0 | 4.0 | 0.00 | 0.00 | 0.00 | 48 | 1025.1 |
| 20260503171018 | 77 | 178 | 3.0 | 5.0 | 0.00 | 0.00 | 0.00 | 50 | 1025.1 |
| 20260503131019 | 57 | 0.0 | 0.0 | 0.00 | 0.00 | 0.00 | 83 | 1024.6 | |
| 20260503081033 | 54 | 0.0 | 0.0 | 0.00 | 0.00 | 0.00 | 84 | 1023.4 | |
| 20260503072023 | 56 | 0.0 | 0.0 | 0.00 | 0.00 | 0.00 | 83 | 1023.9 | |
| 20260503071048 | 56 | 0.0 | 0.0 | 0.00 | 0.00 | 0.00 | 81 | 1024.1 | |
| 20260503055037 | 56 | 0.0 | 0.0 | 0.00 | 0.00 | 0.00 | 81 | 1024.2 | |
| 20260503054022 | 56 | 0.0 | 0.0 | 0.00 | 0.00 | 0.00 | 79 | 1024.1 |